www.pogodaiklimat.ru

Погода и климат >> Архив погоды >> Алжир >> Бени-Аббес


ПОГОДА в Бени-Аббесе

  • Прогноз погоды в Бени-Аббесе
  • Монитор погоды в Бени-Аббесе

АРХИВ ПОГОДЫ в Бени-Аббесе

Время (UTC), дата Ветер
(напр.,м/с)
 
Видим.   Явления Облачность Т
(С)
Тd
(С)
f
(%)
Тe
(С)
Тes
(С)
Комфортность P
(гПа)
Po
(гПа)
Тmin
(С)
Tmax
(С)
R
(мм)
R24
(мм)
S
(см)
15 14.07 З 4 8000 м ясно +45.7 +41 +49 опасность
перегрева
1005.9 952.9
18 14.07 Ю 4 8000 м ясно +44.7 +40 +40 очень
жарко
1005.0 951.9 +46.1
06 15.07 ЮВ 1 6000 м ясно +31.9 +27 +27 жарко 1004.9 949.6 +31.7
09 15.07 штиль 0 6000 м ясно +38.8 +34 +50 очень
жарко
1006.5 952.3
12 15.07 В 3 6000 м ясно +42.7 +38 +55 опасность
солнечного
удара
1005.1 951.7
15 15.07 СВ 3 6000 м ясно +46.3 +41 +53 опасность
перегрева
1002.9 950.2
18 15.07 С 5 5000 м 8/0
[Cc]
+44.6 +40 +40 очень
жарко
1002.6 949.6 +46.9
06 16.07 В 10 4000 м пыльный позёмок 8/0
[Ac trans]
+33.7 +1.5 13 +31 +31 жарко 1004.6 949.7 +33.6
09 16.07 СВ 7 4000 м пыльный позёмок 8/0
[Ac trans]
+36.4 +2.7 12 +33 +35 жарко 1007.0 952.4
12 16.07 В 8 4000 м пыльный позёмок 8/0
[Ac trans]
+43.1 +38 +40 очень
жарко
1005.9 952.5
15 16.07 ЮВ 7 4000 м пыльный позёмок 4/0
[Cc]
+45.7 +41 +44 опасность
перегрева
1003.7 950.8
18 16.07 ЮВ 2 5000 м 8/0
[Ac trans Cc]
+45.2 +40 +41 очень
жарко
1003.1 950.2 +46.8
06 17.07 ЮВ 5 5000 м 8/0
[Ac trans]
+33.2 +8.0 21 +32 +32 жарко 1005.5 950.4 +32.9
09 17.07 ЮВ 8 4000 м пыльный позёмок 8/0
[Ac trans]
+36.0 +6.1 16 +34 +35 очень
жарко
1006.6 951.9
12 17.07 ЮВ 7 4000 м пыльный позёмок 8/0
[Cc]
+42.2 +5.3 11 +39 +44 очень
жарко
1005.4 951.9
15 17.07 Ю 3 6000 м 1/0
[Cc]
+45.2 +40 +51 опасность
солнечного
удара
1002.7 949.8
18 17.07 ЮВ 6 6000 м 6/0
[Ac trans Cc]
+45.1 +40 +40 очень
жарко
1000.5 947.7 +46.0
06 18.07 В 10 1000 м пыльный позёмок 5/1 1380 м
[Sc Ac trans]
+33.4 +6.5 19 +31 +31 жарко 1000.6 945.8 +33.3
09 18.07 В 8 2000 м пыльный позёмок ясно +37.9 +4.3 13 +35 +37 очень
жарко
1002.6 948.5
12 18.07 В 9 2000 м пыльный позёмок 1/0
[Cc]
+42.4 +3.2 9 +39 +42 очень
жарко
1002.0 948.7
15 18.07 В 5 2000 м пыль 1/0
[Ac cast Ci fib]
+45.3 +40 +46 очень
жарко
1000.0 947.2
18 18.07 В 5 2000 м пыль 6/0
[Ac cast Cc]
+43.4 +38 +39 очень
жарко
999.6 946.6 +45.4
06 19.07 Ю 2 2000 м пыль 8/8 1380 м
[Sc]
+30.9 +3.4 17 +28 +29 жарко 1004.5 949.1 +30.6
09 19.07 В 9 2000 м пыльный позёмок 9/9 1300 м
[Cu Sc]
+34.9 +1.9 13 +32 +32 жарко 1005.5 950.7
12 19.07 ЮВ 5 6000 м 8/3 1300 м
[Cu Sc Ac cast Cc]
+40.7 +36 +41 очень
жарко
1006.0 952.2
15 19.07 ЮВ 5 7000 м 1/0
[Ac cast Ci fib]
+44.3 +39 +45 очень
жарко
1004.8 951.6
18 19.07 ЮВ 6 7000 м 5/0
[Ac cast]
+42.8 +38 +38 очень
жарко
1004.1 950.7 +44.8
06 20.07 В 5 8000 м 8/0
[Ac trans Ci sp]
+34.7 +1.9 13 +32 +32 жарко 1006.9 952.0 +34.7
09 20.07 ЮВ 8 8000 м 9/9 1380 м
[Sc]
+35.7 +3.6 14 +33 +33 жарко 1009.3 954.4
12 20.07 Ю 6 6000 м 9/1 1380 м
[Sc Ac trans Ci sp]
+40.4 +3.4 10 +37 +41 очень
жарко
1009.6 955.5
15 20.07 Ю 5 3000 м пыль 9/0
[Ac trans Ci sp]
+42.7 +38 +43 очень
жарко
1007.2 953.6
18 20.07 Ю 5 7000 м 8/0
[Ac trans Ci sp]
+41.1 +36 +36 очень
жарко
1007.5 953.7 +43.9
06 21.07 В 3 8000 м 5/0
[Ac cast]
+31.4 +3.4 17 +29 +29 жарко 1010.0 954.4 +31.3
09 21.07 ЮВ 7 9000 м 1/0
[Ac cast]
+38.2 +4.6 13 +35 +39 очень
жарко
1010.8 956.3
12 21.07 ЮВ 8 9000 м ясно +43.1 +4.1 9 +40 +44 очень
жарко
1010.5 956.8

 

Местоположение метеостанции Бени-Аббес (Алжир): широта 30.13 долгота -2.17 высота над уровнем моря 505 м.

В архиве по умолчанию представлена погода в Бени-Аббесе за последнюю неделю. Архивные данные за месяц целиком и за предыдущие месяцы, начиная с января 2011 года, Вы можете получить, выбрав интересующий диапазон дат из раскрывающегося списка и нажав кнопку "Ввод!".


*Определитесь, кто Вы:
робот инопланетянин человек

Внимание! Время в таблицах - всемирное. Для получения местного времени необходимо прибавить поправку, которая равна 1 ч.

Смотрите также архив погоды в соседних городах и на ближайших метеорологических станциях:

Погода в Бешаре (Алжир) (153 км)
Погода в Тимимуне (Алжир) (256 км)
Погода в Эр-Рашидии (Марокко) (292 км)
Погода в Адраре (Алжир) (316 км)
Погода в Айн-Сефра (Алжир) (329 км)
Погода в Мидельте (Марокко) (373 км)
Погода в Наама (Алжир) (392 км)
Погода в Мешерьа (Алжир) (423 км)
Погода в Варзазате (Марокко) (462 км)
Погода в Касба-Тадле (Марокко) (473 км)

Пояснения к столбцам:

Ветер - указаны скорость ветра в м/с - средняя за 10 мин, порывы в срок и между сроками (в фигурных скобках) и направление, откуда дует ветер: С - северный, СВ - северо-восточный, В - восточный, ЮВ - юго-восточный, Ю - южный, ЮЗ - юго-западный, З - западный, СЗ - северо-западный.
Видимость - горизонтальная дальность видимости в метрах или километрах. При видимости от 1 до 10 км при отсутствии осадков обычно наблюдается дымка, при ухудшении видимости до 1 км и менее - туман. В сухую погоду видимость может ухудшаться дымом, пылью или мглою.
Явления - указаны атмосферные явления, наблюдавшиеся в срок или в последний час перед сроком; фигурными скобками обозначены явления, наблюдавшиеся между сроками (за 1-3 часа до срока); квадратными скобками обозначены град или гололедные отложения с указанием их диаметра в мм.
Облачность - указаны через наклонную черту общая и нижняя облачность в баллах и высота нижней границы облаков в метрах; квадратными скобками обозначены формы облаков: Ci - перистые, Cs - перисто-слоистые, Cc - перисто-кучевые, Ac - высококучевые, As - высокослоистые, Sc - слоисто-кучевые, Ns - слоисто-дождевые, Cu - кучевые, Cb - кучево-дождевые. Подробнее классификацию облаков см. в Атласе облаков (PDF).
T - Температура воздуха - температура, измеренная на высоте 2 м над землей.
Td - Температура точки росы - температура, при понижении до которой содержащийся в воздухе водяной пар достигнет насыщения.
f - Относительная влажность воздуха - влажноcть воздуха, измеренная на высоте 2 м над землей.
Te - Эффективная температура - температура, которую ощущает одетый по сезону человек в тени. Характеристика душности погоды. При расчете учитывается влияние влажности воздуха и скорости ветра на теплоощущения человека.
Tes - Эффективная температура на солнце - температура, которую ощущает человек, с поправкой на солнечный нагрев. Характеристика знойности погоды. Зависит от высоты солнца над горизонтом, облачности и скорости ветра. Ночью, в пасмурную погоду, а также при ветре 12 м/с и более поправка равна нулю.
P - Атмосферное давление - приведенное к уровню моря атмосферное давление.
Po - Атмосферное давление - измеренное на уровне метеостанции атмосферное давление.
Tmin - Минимальная температура - минимум температуры воздуха на высоте 2 м над землей.
Tmax - Максимальная температура - максимум температуры воздуха на высоте 2 м над землей.
R - Количество осадков - Количество выпавших осадков за период времени, мм. При наведении курсора мыши на число - период времени, за который выпало указанное количество осадков.
R24 - Количество осадков - Количество выпавших осадков за 24 часа, мм.
S - Снежный покров - Высота снежного покрова, см. При наведении курсора мыши на число - состояние снежного покрова и степень покрытия местности в баллах.